Hurghada, Egypt

6:33 AM EET on September 21, 2017 (GMT +0200)
Hurghada

Weather History for HEGN - March, 2013

Change the Weather History Date:

Monday, March 4, 2013

  Actual Average Record
Temperature  
Mean Temperature 74 °F -  
Max Temperature 86 °F 76 °F 89 °F (2014)
Min Temperature 62 °F 59 °F 48 °F (2012)
Cooling Degree Days 9    
Growing Degree Days 24 (Base 50)    
Moisture  
Dew Point 52 °F    
Average Humidity 56    
Maximum Humidity 100    
Minimum Humidity 23    
Precipitation  
Precipitation 0.00 in - - ()
Sea Level Pressure  
Sea Level Pressure 29.90 in    
Wind  
Wind Speed 13 mph ()    
Max Wind Speed 26 mph    
Max Gust Speed -    
Visibility 5.2 miles    
Events      
Averages and records for this station are not official NWS values.
T = Trace of Precipitation, MM = Missing Value Source: Averaged Metar Reports

Daily Weather History Graph

Daily Weather History Graph

Search for Another Location

Airport or City:

Trip Planner

Search our weather history database for the weather conditions in past years. The results will help you decide how hot, cold, wet, or windy it might be!

Date:

Astronomy

Mar. 04, 2013 Rise Set
Actual Time 6:06 AM EET 5:47 PM EET
Civil Twilight 5:42 AM EET 6:11 PM EET
Nautical Twilight 5:15 AM EET 6:38 PM EET
Astronomical Twilight 4:48 AM EET 7:05 PM EET
Moon No Moon Rise 10:32 AM EET (3/4)
Length of Visible Light 12h 28m
Length of Day
11h 41m
Waning Gibbous, 56% of the Moon is Illuminated
Mar 4
Waning Gibbous
Mar 4
Last Quarter
Mar 11
New
Mar 19
First Quarter
Mar 27
Full

Hourly Weather History & Observations

Time (EET) Temp. Dew Point Humidity Pressure Visibility Wind Dir Wind Speed Gust Speed Precip Events Conditions
12:00 AM 68.0 °F 66.2 °F 94% 29.86 in - WNW 9.2 mph - N/A   Clear
1:00 AM 68.0 °F 66.2 °F 94% 29.86 in - WNW 9.2 mph - N/A   Clear
2:00 AM 66 °F 66 °F 100% 29.86 in 6 mi WNW 11.5 mph - -  
2:00 AM 66.2 °F 66.2 °F 100% 29.86 in - WNW 11.5 mph - N/A   Clear
3:00 AM 66.2 °F 66.2 °F 100% 29.86 in - WNW 11.5 mph - N/A   Clear
4:00 AM 66.2 °F 66.2 °F 100% 29.86 in - WNW 11.5 mph - N/A   Clear
5:00 AM 66.2 °F 64.4 °F 94% 29.86 in - NW 11.5 mph - N/A   Clear
6:00 AM 64.4 °F 62.6 °F 94% 29.89 in - North 13.8 mph - N/A   Clear
7:00 AM 62.6 °F 55.4 °F 77% 29.92 in - NNW 9.2 mph - N/A   Clear
8:00 AM 69 °F 52 °F 45% 29.94 in 6 mi NW 13.8 mph - -  
8:00 AM 68.0 °F 51.8 °F 56% 29.92 in - NW 13.8 mph - N/A   Clear
9:00 AM 71.6 °F 53.6 °F 53% 29.95 in - NNW 13.8 mph - N/A   Clear
10:00 AM 77.0 °F 53.6 °F 44% 29.95 in - NW 17.3 mph - N/A   Clear
11:00 AM 78.8 °F 51.8 °F 39% 29.95 in 5.0 mi North 26.5 mph - N/A   Unknown
12:00 PM 80.6 °F 50.0 °F 34% 29.92 in 5.0 mi North 25.3 mph - N/A   Unknown
1:00 PM 86.0 °F 44.6 °F 23% 29.89 in 5.0 mi North 19.6 mph - N/A   Unknown
2:00 PM 82.4 °F 46.4 °F 28% 29.86 in 5.0 mi North 26.5 mph - N/A   Unknown
3:00 PM 82.4 °F 48.2 °F 30% 29.86 in 5.0 mi North 23.0 mph - N/A   Unknown
4:00 PM 82.4 °F 42.8 °F 25% 29.86 in 5.0 mi North 20.7 mph - N/A   Unknown
5:00 PM 80.6 °F 44.6 °F 28% 29.86 in - NNW 20.7 mph - N/A   Unknown
6:00 PM 77.0 °F 42.8 °F 29% 29.89 in - NNW 12.7 mph - N/A   Unknown
7:00 PM 73.4 °F 41.0 °F 31% 29.92 in - NNW 20.7 mph - N/A   Clear
8:00 PM 73.4 °F 39.2 °F 29% 29.95 in - NNW 23.0 mph - N/A   Clear
9:00 PM 71.6 °F 41.0 °F 33% 29.95 in - NW 20.7 mph - N/A   Clear
10:00 PM 68.0 °F 39.2 °F 35% 29.95 in - NNW 16.1 mph - N/A   Clear
11:00 PM 66.2 °F 39.2 °F 37% 29.95 in - NW 13.8 mph - N/A   Clear